This demonstration page uses our WeatherBlox Daily Observations layout. Learn more.

Left ArrowRight Arrow

Hourly Observations for January 22, 2022

Temp ( °F °C ) Dew Point ( °F °C ) Humidity (%) Winds ( mph kmh ) Pressure ( in mb ) Visibility ( mi km ) Precip ( " mm )
12:51 am 00:51 Clear 47 8.3 32 0 56 56 ESE 10 17 29.89 1012 10 16 0.00 0.00
1:51 am 01:51 Clear 43 6.1 32 0 65 65 SE 8 13 29.91 1013 10 16 0.00 0.00
2:51 am 02:51 Clear 44 6.7 31 -0.6 60 60 SE 9 15 29.92 1013 10 16 0.00 0.00
3:51 am 03:51 Clear 43 6.1 30 -1.1 60 60 SE 14 22 29.92 1013 10 16 0.00 0.00
4:51 am 04:51 Clear 41 5 33 0.6 73 73 ESE 9 15 29.92 1013 10 16 0.00 0.00
5:51 am 05:51 Clear 40 4.4 33 0.6 77 77 SE 9 15 29.95 1014 10 16 0.00 0.00
6:51 am 06:51 Clear 40 4.4 32 0 73 73 SSE 9 15 29.99 1016 10 16 0.00 0.00
7:51 am 07:51 Sunny 41 5 31 -0.6 67 67 SE 7 11 30.01 1016 10 16 0.00 0.00
8:51 am 08:51 Sunny 45 7.2 32 0 61 61 SSE 6 9 30.03 1017 10 16 0.00 0.00
9:51 am 09:51 Sunny 48 8.9 31 -0.6 52 52 S 9 15 30.04 1017 10 16 0.00 0.00
10:51 am 10:51 Mostly Cloudy 50 10 31 -0.6 48 48 VRB 6 9 30.05 1018 10 16 0.00 0.00
11:51 am 11:51 Mostly Cloudy 53 11.7 31 -0.6 43 43 S 7 11 30.03 1017 10 16 0.00 0.00
12:51 pm 12:51 Cloudy 56 13.3 31 -0.6 39 39 SSE 5 7 29.98 1015 10 16 0.00 0.00
1:51 pm 13:51 Cloudy 58 14.4 29 -1.7 33 33 SSE 9 15 29.96 1014 10 16 0.00 0.00
2:51 pm 14:51 Cloudy 58 14.4 29 -1.7 33 33 SSE 13 20 29.95 1014 10 16 0.00 0.00
3:51 pm 15:51 Cloudy 58 14.4 29 -1.7 33 33 SSE 9 15 29.95 1014 10 16 0.00 0.00
4:51 pm 16:51 Cloudy 56 13.3 31 -0.6 39 39 S 5 7 29.95 1014 10 16 0.00 0.00
5:51 pm 17:51 Cloudy 56 13.3 29 -1.7 36 36 SE 12 19 29.98 1015 10 16 0.00 0.00
6:51 pm 18:51 Cloudy 56 13.3 28 -2.2 34 34 SE 9 15 30.00 1016 10 16 0.00 0.00
7:51 pm 19:51 Cloudy 54 12.2 31 -0.6 42 42 Calm 30.03 1017 10 16 0.00 0.00
8:51 pm 20:51 Cloudy 54 12.2 30 -1.1 40 40 SSE 3 6 30.03 1017 10 16 0.00 0.00
9:51 pm 21:51 Cloudy 51 10.6 30 -1.1 44 44 E 7 11 30.05 1018 10 16 0.00 0.00
10:51 pm 22:51 Cloudy 52 11.1 28 -2.2 40 40 ESE 10 17 30.05 1018 10 16 0.00 0.00
11:51 pm 23:51 Clear 47 8.3 28 -2.2 48 48 ESE 8 13 30.06 1018 10 16 0.00 0.00

Powered by AerisWeather